Time,TemperatureF,DewpointF,PressureIn,WindDirection,WindDirectionDegrees,WindSpeedMPH,WindSpeedGustMPH,Humidity,HourlyPrecipIn,Conditions,Clouds,dailyrainin,SoftwareType,DateUTC
2013-02-19 00:00:00,5.8,-0.7,29.97,NW,304,9.0,16.0,74,0.00,,---,0.00,VWS V14.01,2013-02-19 06:00:00,
2013-02-19 00:01:00,5.8,-0.4,29.98,North,360,6.0,16.0,75,0.00,,---,0.00,VWS V14.01,2013-02-19 06:01:00,
2013-02-19 00:06:00,5.8,-0.7,29.97,NW,325,8.0,13.0,74,0.00,,---,0.00,VWS V14.01,2013-02-19 06:06:00,
2013-02-19 00:11:00,5.6,-0.9,29.97,NNE,13,10.0,13.0,74,0.00,,---,0.00,VWS V14.01,2013-02-19 06:11:00,
2013-02-19 00:16:00,5.5,-1.0,29.98,North,360,9.0,16.0,74,0.00,,---,0.00,VWS V14.01,2013-02-19 06:16:00,
2013-02-19 00:21:00,5.5,-1.0,29.98,NNW,330,4.0,16.0,74,0.00,,---,0.00,VWS V14.01,2013-02-19 06:21:00,
2013-02-19 00:26:00,5.4,-1.1,29.99,NW,320,11.0,16.0,74,0.00,,---,0.00,VWS V14.01,2013-02-19 06:26:00,
2013-02-19 00:30:00,5.3,-1.2,29.99,NNW,331,4.0,16.0,74,0.00,,---,0.00,VWS V14.01,2013-02-19 06:30:00,
2013-02-19 00:31:00,5.3,-1.2,29.99,North,355,8.0,16.0,74,0.00,,---,0.00,VWS V14.01,2013-02-19 06:31:00,
2013-02-19 00:36:00,5.3,-1.2,29.99,NW,324,6.0,11.0,74,0.00,,---,0.00,VWS V14.01,2013-02-19 06:36:00,
2013-02-19 00:41:00,5.2,-1.3,29.99,NW,322,5.0,13.0,74,0.00,,---,0.00,VWS V14.01,2013-02-19 06:41:00,
2013-02-19 00:46:00,5.1,-1.4,30.00,NW,310,4.0,13.0,74,0.00,,---,0.00,VWS V14.01,2013-02-19 06:46:00,
2013-02-19 00:51:00,5.1,-1.4,30.00,NNW,342,4.0,13.0,74,0.00,,---,0.00,VWS V14.01,2013-02-19 06:51:00,
2013-02-19 00:56:00,5.1,-1.1,30.00,NW,321,5.0,18.0,75,0.00,,---,0.00,VWS V14.01,2013-02-19 06:56:00,
2013-02-19 01:00:00,5.1,-1.4,30.00,NW,325,1.0,18.0,74,0.00,,---,0.00,VWS V14.01,2013-02-19 07:00:00,
2013-02-19 01:01:00,5.1,-1.4,30.00,NW,321,6.0,18.0,74,0.00,,---,0.00,VWS V14.01,2013-02-19 07:01:00,
2013-02-19 01:06:00,5.0,-1.5,30.00,NNW,327,4.0,11.0,74,0.00,,---,0.00,VWS V14.01,2013-02-19 07:06:00,
2013-02-19 01:11:00,5.0,-1.2,30.01,NW,321,8.0,14.0,75,0.00,,---,0.00,VWS V14.01,2013-02-19 07:11:00,
2013-02-19 01:16:00,4.9,-1.3,30.00,NNW,329,10.0,14.0,75,0.00,,---,0.00,VWS V14.01,2013-02-19 07:16:00,
2013-02-19 01:21:00,4.8,-1.4,30.01,NNW,327,8.0,14.0,75,0.00,,---,0.00,VWS V14.01,2013-02-19 07:21:00,
2013-02-19 01:26:00,4.7,-1.8,30.01,NW,311,7.0,15.0,74,0.00,,---,0.00,VWS V14.01,2013-02-19 07:26:00,
2013-02-19 01:30:00,4.4,-2.0,30.01,NNW,329,10.0,18.0,74,0.00,,---,0.00,VWS V14.01,2013-02-19 07:30:00,
2013-02-19 01:31:00,4.5,-1.9,30.01,NW,321,7.0,18.0,74,0.00,,---,0.00,VWS V14.01,2013-02-19 07:31:00,
2013-02-19 01:36:00,4.3,-2.1,30.02,NW,324,9.0,12.0,74,0.00,,---,0.00,VWS V14.01,2013-02-19 07:36:00,
2013-02-19 01:41:00,4.2,-2.0,30.02,NW,318,5.0,12.0,75,0.00,,---,0.00,VWS V14.01,2013-02-19 07:41:00,
2013-02-19 01:46:00,4.0,-2.2,30.02,NW,323,10.0,13.0,75,0.00,,---,0.00,VWS V14.01,2013-02-19 07:46:00,
2013-02-19 01:51:00,3.9,-2.2,30.03,NW,326,7.0,14.0,75,0.00,,---,0.00,VWS V14.01,2013-02-19 07:51:00,
2013-02-19 01:56:00,3.7,-2.4,30.03,NW,326,8.0,14.0,75,0.00,,---,0.00,VWS V14.01,2013-02-19 07:56:00,
2013-02-19 02:00:00,3.6,-2.5,30.03,NW,324,6.0,21.0,75,0.00,,---,0.00,VWS V14.01,2013-02-19 08:00:00,
2013-02-19 02:01:00,3.6,-2.8,30.03,NW,319,10.0,21.0,74,0.00,,---,0.00,VWS V14.01,2013-02-19 08:01:00,
2013-02-19 02:06:00,3.5,-2.6,30.04,NNW,339,4.0,10.0,75,0.00,,---,0.00,VWS V14.01,2013-02-19 08:06:00,
2013-02-19 02:11:00,3.5,-2.6,30.04,NW,315,7.0,14.0,75,0.00,,---,0.00,VWS V14.01,2013-02-19 08:11:00,
2013-02-19 02:16:00,3.4,-2.7,30.04,NW,325,5.0,18.0,75,0.00,,---,0.00,VWS V14.01,2013-02-19 08:16:00,
2013-02-19 02:21:00,3.3,-3.1,30.04,West,264,9.0,18.0,74,0.00,,---,0.00,VWS V14.01,2013-02-19 08:21:00,
2013-02-19 02:26:00,3.2,-3.2,30.04,NW,321,5.0,18.0,74,0.00,,---,0.00,VWS V14.01,2013-02-19 08:26:00,
2013-02-19 02:30:00,3.0,-3.1,30.05,WNW,303,10.0,18.0,75,0.00,,---,0.00,VWS V14.01,2013-02-19 08:30:00,
2013-02-19 02:31:00,3.0,-3.1,30.05,NW,325,10.0,18.0,75,0.00,,---,0.00,VWS V14.01,2013-02-19 08:31:00,
2013-02-19 02:36:00,2.9,-3.2,30.05,NW,319,7.0,13.0,75,0.00,,---,0.00,VWS V14.01,2013-02-19 08:36:00,
2013-02-19 02:41:00,2.8,-3.6,30.05,NNW,328,2.0,24.0,74,0.00,,---,0.00,VWS V14.01,2013-02-19 08:41:00,
2013-02-19 02:46:00,2.8,-3.9,30.05,NW,322,5.0,24.0,73,0.00,,---,0.00,VWS V14.01,2013-02-19 08:46:00,
2013-02-19 02:51:00,2.8,-3.9,30.06,NW,314,16.0,24.0,73,0.00,,---,0.00,VWS V14.01,2013-02-19 08:51:00,
2013-02-19 02:56:00,2.7,-4.0,30.06,NW,323,15.0,24.0,73,0.00,,---,0.00,VWS V14.01,2013-02-19 08:56:00,
2013-02-19 03:00:00,2.6,-4.1,30.06,NW,318,12.0,24.0,73,0.00,,---,0.00,VWS V14.01,2013-02-19 09:00:00,
2013-02-19 03:01:00,2.7,-4.0,30.06,NW,307,8.0,24.0,73,0.00,,---,0.00,VWS V14.01,2013-02-19 09:01:00,
2013-02-19 03:06:00,2.6,-3.8,30.06,NW,315,5.0,13.0,74,0.00,,---,0.00,VWS V14.01,2013-02-19 09:06:00,
2013-02-19 03:11:00,2.4,-3.7,30.07,NNW,331,4.0,13.0,75,0.00,,---,0.00,VWS V14.01,2013-02-19 09:11:00,
2013-02-19 03:16:00,2.4,-3.7,30.07,NNW,332,2.0,15.0,75,0.00,,---,0.00,VWS V14.01,2013-02-19 09:16:00,
2013-02-19 03:21:00,2.3,-3.5,30.07,NW,314,2.0,15.0,76,0.00,,---,0.00,VWS V14.01,2013-02-19 09:21:00,
2013-02-19 03:26:00,2.3,-3.8,30.07,NW,322,12.0,15.0,75,0.00,,---,0.00,VWS V14.01,2013-02-19 09:26:00,
2013-02-19 03:30:00,2.2,-3.9,30.07,NNW,344,8.0,15.0,75,0.00,,---,0.00,VWS V14.01,2013-02-19 09:30:00,
2013-02-19 03:31:00,2.2,-3.9,30.07,NW,309,8.0,15.0,75,0.00,,---,0.00,VWS V14.01,2013-02-19 09:31:00,
2013-02-19 03:36:00,2.1,-4.0,30.07,NNW,342,5.0,9.0,75,0.00,,---,0.00,VWS V14.01,2013-02-19 09:36:00,
2013-02-19 03:41:00,2.0,-4.4,30.08,NW,326,4.0,14.0,74,0.00,,---,0.00,VWS V14.01,2013-02-19 09:41:00,
2013-02-19 03:46:00,2.0,-4.4,30.08,NW,313,11.0,16.0,74,0.00,,---,0.00,VWS V14.01,2013-02-19 09:46:00,
2013-02-19 03:51:00,1.9,-3.9,30.08,NW,313,7.0,16.0,76,0.00,,---,0.00,VWS V14.01,2013-02-19 09:51:00,
2013-02-19 03:56:00,1.9,-3.9,30.08,NW,317,3.0,16.0,76,0.00,,---,0.00,VWS V14.01,2013-02-19 09:56:00,
2013-02-19 04:00:00,1.8,-4.0,30.08,North,355,9.0,16.0,76,0.00,,---,0.00,VWS V14.01,2013-02-19 10:00:00,
2013-02-19 04:01:00,1.8,-4.0,30.08,NW,323,5.0,16.0,76,0.00,,---,0.00,VWS V14.01,2013-02-19 10:01:00,
2013-02-19 04:06:00,1.8,-4.0,30.09,NW,316,5.0,11.0,76,0.00,,---,0.00,VWS V14.01,2013-02-19 10:06:00,
2013-02-19 04:11:00,1.8,-4.0,30.09,NW,318,9.0,11.0,76,0.00,,---,0.00,VWS V14.01,2013-02-19 10:11:00,
2013-02-19 04:16:00,1.7,-4.1,30.09,NNW,327,5.0,15.0,76,0.00,,---,0.00,VWS V14.01,2013-02-19 10:16:00,
2013-02-19 04:21:00,1.7,-4.1,30.09,NNW,328,9.0,15.0,76,0.00,,---,0.00,VWS V14.01,2013-02-19 10:21:00,
2013-02-19 04:26:00,1.6,-3.9,30.09,NW,322,1.0,15.0,77,0.00,,---,0.00,VWS V14.01,2013-02-19 10:26:00,
2013-02-19 04:30:00,1.4,-4.1,30.10,NNW,329,9.0,15.0,77,0.00,,---,0.00,VWS V14.01,2013-02-19 10:30:00,
2013-02-19 04:31:00,1.5,-4.0,30.10,WNW,291,12.0,15.0,77,0.00,,---,0.00,VWS V14.01,2013-02-19 10:31:00,
2013-02-19 04:36:00,1.3,-4.2,30.09,WNW,289,2.0,12.0,77,0.00,,---,0.00,VWS V14.01,2013-02-19 10:36:00,
2013-02-19 04:41:00,1.2,-4.6,30.09,NW,311,6.0,12.0,76,0.00,,---,0.00,VWS V14.01,2013-02-19 10:41:00,
2013-02-19 04:46:00,1.1,-5.0,30.09,NNW,344,6.0,12.0,75,0.00,,---,0.00,VWS V14.01,2013-02-19 10:46:00,
2013-02-19 04:51:00,0.9,-5.2,30.10,NW,319,9.0,12.0,75,0.00,,---,0.00,VWS V14.01,2013-02-19 10:51:00,
2013-02-19 04:56:00,0.8,-5.2,30.10,NNW,342,5.0,12.0,75,0.00,,---,0.00,VWS V14.01,2013-02-19 10:56:00,
2013-02-19 05:00:00,0.6,-5.4,30.10,NW,311,3.0,12.0,75,0.00,,---,0.00,VWS V14.01,2013-02-19 11:00:00,
2013-02-19 05:01:00,0.7,-5.3,30.10,NW,321,5.0,12.0,75,0.00,,---,0.00,VWS V14.01,2013-02-19 11:01:00,
2013-02-19 05:06:00,0.6,-5.4,30.11,NNW,345,11.0,11.0,75,0.00,,---,0.00,VWS V14.01,2013-02-19 11:06:00,
2013-02-19 05:11:00,0.5,-5.5,30.11,NW,311,8.0,12.0,75,0.00,,---,0.00,VWS V14.01,2013-02-19 11:11:00,
2013-02-19 05:16:00,0.4,-5.6,30.11,NW,323,8.0,12.0,75,0.00,,---,0.00,VWS V14.01,2013-02-19 11:16:00,
2013-02-19 05:21:00,0.3,-5.5,30.11,NW,321,3.0,12.0,76,0.00,,---,0.00,VWS V14.01,2013-02-19 11:21:00,
2013-02-19 05:26:00,0.2,-5.6,30.12,NNW,332,9.0,12.0,76,0.00,,---,0.00,VWS V14.01,2013-02-19 11:26:00,
2013-02-19 05:30:00,0.1,-5.7,30.12,NW,321,10.0,16.0,76,0.00,,---,0.00,VWS V14.01,2013-02-19 11:30:00,
2013-02-19 05:31:00,0.2,-5.6,30.12,NW,319,7.0,16.0,76,0.00,,---,0.00,VWS V14.01,2013-02-19 11:31:00,
2013-02-19 05:36:00,0.1,-5.7,30.12,NNW,338,9.0,14.0,76,0.00,,---,0.00,VWS V14.01,2013-02-19 11:36:00,
2013-02-19 05:41:00,0.1,-5.8,30.12,NW,322,9.0,14.0,76,0.00,,---,0.00,VWS V14.01,2013-02-19 11:41:00,
2013-02-19 05:46:00,0.1,-5.5,30.13,NW,325,8.0,14.0,77,0.00,,---,0.00,VWS V14.01,2013-02-19 11:46:00,
2013-02-19 05:51:00,-0.1,-5.8,30.13,NW,311,5.0,15.0,76,0.00,,---,0.00,VWS V14.01,2013-02-19 11:51:00,
2013-02-19 05:56:00,-0.1,-5.8,30.14,NW,321,9.0,15.0,76,0.00,,---,0.00,VWS V14.01,2013-02-19 11:56:00,
2013-02-19 06:00:00,-0.1,-6.1,30.14,NNW,335,6.0,15.0,75,0.00,,---,0.00,VWS V14.01,2013-02-19 12:00:00,
2013-02-19 06:01:00,-0.1,-6.1,30.14,NW,322,4.0,15.0,75,0.00,,---,0.00,VWS V14.01,2013-02-19 12:01:00,
2013-02-19 06:06:00,-0.1,-6.1,30.15,NNW,331,8.0,18.0,75,0.00,,---,0.00,VWS V14.01,2013-02-19 12:06:00,
2013-02-19 06:11:00,-0.2,-6.2,30.15,NNW,328,8.0,18.0,75,0.00,,---,0.00,VWS V14.01,2013-02-19 12:11:00,
2013-02-19 06:16:00,-0.3,-6.3,30.15,WNW,295,2.0,18.0,75,0.00,,---,0.00,VWS V14.01,2013-02-19 12:16:00,
2013-02-19 06:21:00,-0.4,-6.4,30.16,NW,316,4.0,18.0,75,0.00,,---,0.00,VWS V14.01,2013-02-19 12:21:00,
2013-02-19 06:26:00,-0.4,-6.4,30.16,NW,323,3.0,18.0,75,0.00,,---,0.00,VWS V14.01,2013-02-19 12:26:00,
2013-02-19 06:30:00,-0.5,-6.5,30.16,NW,323,1.0,18.0,75,0.00,,---,0.00,VWS V14.01,2013-02-19 12:30:00,
2013-02-19 06:31:00,-0.4,-6.4,30.16,WNW,302,1.0,18.0,75,0.00,,---,0.00,VWS V14.01,2013-02-19 12:31:00,
2013-02-19 06:36:00,-0.5,-6.5,30.16,NNW,336,4.0,12.0,75,0.00,,---,0.00,VWS V14.01,2013-02-19 12:36:00,
2013-02-19 06:41:00,-0.6,-6.6,30.17,NNW,328,3.0,12.0,75,0.00,,---,0.00,VWS V14.01,2013-02-19 12:41:00,
2013-02-19 06:46:00,-0.7,-6.7,30.17,NNW,337,3.0,12.0,75,0.00,,---,0.00,VWS V14.01,2013-02-19 12:46:00,
2013-02-19 06:51:00,-0.7,-6.4,30.17,NNW,331,4.0,12.0,76,0.00,,---,0.00,VWS V14.01,2013-02-19 12:51:00,
2013-02-19 06:56:00,-0.8,-6.5,30.17,North,355,4.0,12.0,76,0.00,,---,0.00,VWS V14.01,2013-02-19 12:56:00,
2013-02-19 07:00:00,-0.9,-6.9,30.17,NW,322,2.0,12.0,75,0.00,,---,0.00,VWS V14.01,2013-02-19 13:00:00,
2013-02-19 07:01:00,-0.8,-6.8,30.17,NW,319,2.0,12.0,75,0.00,,---,0.00,VWS V14.01,2013-02-19 13:01:00,
2013-02-19 07:06:00,-0.9,-6.9,30.18,NNW,331,4.0,8.0,75,0.00,,---,0.00,VWS V14.01,2013-02-19 13:06:00,
2013-02-19 07:11:00,-0.9,-6.6,30.18,NW,321,1.0,11.0,76,0.00,,---,0.00,VWS V14.01,2013-02-19 13:11:00,
2013-02-19 07:16:00,-1.0,-6.5,30.18,NW,323,1.0,11.0,77,0.00,,---,0.00,VWS V14.01,2013-02-19 13:16:00,
2013-02-19 07:21:00,-1.1,-6.6,30.18,NNW,327,6.0,11.0,77,0.00,,---,0.00,VWS V14.01,2013-02-19 13:21:00,
2013-02-19 07:26:00,-1.2,-6.7,30.19,NW,326,8.0,14.0,77,0.00,,---,0.00,VWS V14.01,2013-02-19 13:26:00,
2013-02-19 07:30:00,-1.3,-7.3,30.19,NW,323,9.0,14.0,75,0.00,,---,0.00,VWS V14.01,2013-02-19 13:30:00,
2013-02-19 07:31:00,-1.3,-7.0,30.19,NNW,331,5.0,14.0,76,0.00,,---,0.00,VWS V14.01,2013-02-19 13:31:00,
2013-02-19 07:36:00,-1.3,-7.3,30.19,NW,318,2.0,9.0,75,0.00,,---,0.00,VWS V14.01,2013-02-19 13:36:00,
2013-02-19 07:41:00,-1.4,-7.4,30.19,NW,311,5.0,10.0,75,0.00,,---,0.00,VWS V14.01,2013-02-19 13:41:00,
2013-02-19 07:46:00,-1.4,-7.4,30.20,NNE,21,4.0,10.0,75,0.00,,---,0.00,VWS V14.01,2013-02-19 13:46:00,
2013-02-19 07:51:00,-1.4,-7.7,30.20,NNW,327,5.0,10.0,74,0.00,,---,0.00,VWS V14.01,2013-02-19 13:51:00,
2013-02-19 07:56:00,-1.4,-7.4,30.20,NNW,329,8.0,10.0,75,0.00,,---,0.00,VWS V14.01,2013-02-19 13:56:00,
2013-02-19 08:00:00,-1.4,-7.7,30.20,NW,326,4.0,12.0,74,0.00,,---,0.00,VWS V14.01,2013-02-19 14:00:00,
2013-02-19 08:01:00,-1.4,-7.4,30.20,NW,325,8.0,12.0,75,0.00,,---,0.00,VWS V14.01,2013-02-19 14:01:00,
2013-02-19 08:06:00,-1.4,-7.7,30.21,NW,322,6.0,9.0,74,0.00,,---,0.00,VWS V14.01,2013-02-19 14:06:00,
2013-02-19 08:11:00,-1.3,-7.6,30.21,NNW,329,5.0,12.0,74,0.00,,---,0.00,VWS V14.01,2013-02-19 14:11:00,
2013-02-19 08:16:00,-1.3,-7.6,30.21,NW,322,4.0,12.0,74,0.00,,---,0.00,VWS V14.01,2013-02-19 14:16:00,
2013-02-19 08:21:00,-1.2,-7.5,30.22,NW,315,5.0,12.0,74,0.00,,---,0.00,VWS V14.01,2013-02-19 14:21:00,
2013-02-19 08:26:00,-1.2,-7.5,30.22,West,277,6.0,12.0,74,0.00,,---,0.00,VWS V14.01,2013-02-19 14:26:00,
2013-02-19 08:30:00,-1.1,-7.4,30.22,NW,323,6.0,14.0,74,0.00,,---,0.00,VWS V14.01,2013-02-19 14:30:00,
2013-02-19 08:31:00,-1.2,-7.5,30.22,NNW,347,3.0,14.0,74,0.00,,---,0.00,VWS V14.01,2013-02-19 14:31:00,
2013-02-19 08:36:00,-1.1,-7.4,30.22,NW,311,10.0,11.0,74,0.00,,---,0.00,VWS V14.01,2013-02-19 14:36:00,
2013-02-19 08:41:00,-1.0,-7.3,30.22,NNW,327,4.0,11.0,74,0.00,,---,0.00,VWS V14.01,2013-02-19 14:41:00,
2013-02-19 08:46:00,-0.8,-7.1,30.22,NNW,327,12.0,12.0,74,0.00,,---,0.00,VWS V14.01,2013-02-19 14:46:00,
2013-02-19 08:51:00,-0.5,-7.1,30.22,NNW,344,8.0,13.0,73,0.00,,---,0.00,VWS V14.01,2013-02-19 14:51:00,
2013-02-19 08:56:00,-0.3,-6.9,30.23,NW,326,10.0,13.0,73,0.00,,---,0.00,VWS V14.01,2013-02-19 14:56:00,
2013-02-19 09:00:00,-0.2,-7.1,30.23,NNW,330,11.0,14.0,72,0.00,,---,0.00,VWS V14.01,2013-02-19 15:00:00,
2013-02-19 09:01:00,-0.2,-7.1,30.23,NW,323,8.0,13.0,72,0.00,,---,0.00,VWS V14.01,2013-02-19 15:01:00,
2013-02-19 09:06:00,-0.1,-7.0,30.23,NW,323,6.0,11.0,72,0.00,,---,0.00,VWS V14.01,2013-02-19 15:06:00,
2013-02-19 09:11:00,-0.1,-6.9,30.23,NW,320,7.0,13.0,72,0.00,,---,0.00,VWS V14.01,2013-02-19 15:11:00,
2013-02-19 09:16:00,0.1,-6.8,30.23,NW,323,5.0,13.0,72,0.00,,---,0.00,VWS V14.01,2013-02-19 15:16:00,
2013-02-19 09:21:00,0.2,-6.7,30.23,NW,319,5.0,13.0,72,0.00,,---,0.00,VWS V14.01,2013-02-19 15:21:00,
2013-02-19 09:26:00,0.4,-6.8,30.23,NNW,346,9.0,13.0,71,0.00,,---,0.00,VWS V14.01,2013-02-19 15:26:00,
2013-02-19 09:30:00,0.7,-6.5,30.23,NW,321,7.0,13.0,71,0.00,,---,0.00,VWS V14.01,2013-02-19 15:30:00,
2013-02-19 09:31:00,0.6,-6.6,30.23,NNW,345,6.0,13.0,71,0.00,,---,0.00,VWS V14.01,2013-02-19 15:31:00,
2013-02-19 09:36:00,0.8,-6.4,30.23,NNW,327,11.0,15.0,71,0.00,,---,0.00,VWS V14.01,2013-02-19 15:36:00,
2013-02-19 09:41:00,0.6,-6.9,30.23,NW,320,13.0,16.0,70,0.00,,---,0.00,VWS V14.01,2013-02-19 15:41:00,
2013-02-19 09:46:00,0.7,-6.8,30.23,NW,314,5.0,16.0,70,0.00,,---,0.00,VWS V14.01,2013-02-19 15:46:00,
2013-02-19 09:51:00,0.8,-6.7,30.23,NW,322,6.0,16.0,70,0.00,,---,0.00,VWS V14.01,2013-02-19 15:51:00,
2013-02-19 09:56:00,1.0,-6.5,30.23,NW,325,7.0,16.0,70,0.00,,---,0.00,VWS V14.01,2013-02-19 15:56:00,
2013-02-19 10:00:00,1.2,-6.6,30.23,NW,317,12.0,16.0,69,0.00,,---,0.00,VWS V14.01,2013-02-19 16:00:00,
2013-02-19 10:01:00,1.1,-6.7,30.23,NW,309,6.0,16.0,69,0.00,,---,0.00,VWS V14.01,2013-02-19 16:01:00,
2013-02-19 10:06:00,1.2,-6.6,30.24,NNW,327,10.0,14.0,69,0.00,,---,0.00,VWS V14.01,2013-02-19 16:06:00,
2013-02-19 10:11:00,1.3,-6.5,30.24,NW,317,7.0,14.0,69,0.00,,---,0.00,VWS V14.01,2013-02-19 16:11:00,
2013-02-19 10:16:00,1.5,-6.3,30.24,NW,317,7.0,14.0,69,0.00,,---,0.00,VWS V14.01,2013-02-19 16:16:00,
2013-02-19 10:21:00,1.7,-6.1,30.24,NW,310,7.0,14.0,69,0.00,,---,0.00,VWS V14.01,2013-02-19 16:21:00,
2013-02-19 10:26:00,1.8,-6.3,30.25,NW,317,4.0,15.0,68,0.00,,---,0.00,VWS V14.01,2013-02-19 16:26:00,
2013-02-19 10:30:00,1.9,-6.2,30.25,NNW,329,3.0,15.0,68,0.00,,---,0.00,VWS V14.01,2013-02-19 16:30:00,
2013-02-19 10:31:00,1.9,-6.5,30.25,NW,317,6.0,15.0,67,0.00,,---,0.00,VWS V14.01,2013-02-19 16:31:00,
2013-02-19 10:36:00,2.2,-6.2,30.25,NW,323,5.0,11.0,67,0.00,,---,0.00,VWS V14.01,2013-02-19 16:36:00,
2013-02-19 10:41:00,2.4,-6.0,30.25,NNW,345,7.0,14.0,67,0.00,,---,0.00,VWS V14.01,2013-02-19 16:41:00,
2013-02-19 10:46:00,2.5,-6.2,30.25,NNW,331,11.0,14.0,66,0.00,,---,0.00,VWS V14.01,2013-02-19 16:46:00,
2013-02-19 10:51:00,2.5,-6.2,30.25,NW,323,8.0,14.0,66,0.00,,---,0.00,VWS V14.01,2013-02-19 16:51:00,
2013-02-19 10:56:00,2.5,-6.2,30.25,NW,304,7.0,14.0,66,0.00,,---,0.00,VWS V14.01,2013-02-19 16:56:00,
2013-02-19 11:00:00,2.5,-6.6,30.25,NW,321,12.0,14.0,65,0.00,,---,0.00,VWS V14.01,2013-02-19 17:00:00,
2013-02-19 11:01:00,2.5,-6.6,30.25,NNW,327,8.0,14.0,65,0.00,,---,0.00,VWS V14.01,2013-02-19 17:01:00,
2013-02-19 11:06:00,2.6,-6.5,30.26,NW,317,2.0,12.0,65,0.00,,---,0.00,VWS V14.01,2013-02-19 17:06:00,
2013-02-19 11:11:00,2.6,-6.5,30.26,WNW,300,7.0,18.0,65,0.00,,---,0.00,VWS V14.01,2013-02-19 17:11:00,
2013-02-19 11:16:00,2.5,-6.6,30.27,NW,321,8.0,18.0,65,0.00,,---,0.00,VWS V14.01,2013-02-19 17:16:00,
2013-02-19 11:21:00,2.6,-6.5,30.27,NW,325,8.0,18.0,65,0.00,,---,0.00,VWS V14.01,2013-02-19 17:21:00,
2013-02-19 11:26:00,2.8,-6.6,30.27,NW,324,6.0,18.0,64,0.00,,---,0.00,VWS V14.01,2013-02-19 17:26:00,
2013-02-19 11:30:00,2.8,-6.3,30.27,NNW,329,8.0,18.0,65,0.00,,---,0.00,VWS V14.01,2013-02-19 17:30:00,
2013-02-19 11:31:00,2.8,-6.3,30.27,NNW,333,7.0,18.0,65,0.00,,---,0.00,VWS V14.01,2013-02-19 17:31:00,
2013-02-19 11:36:00,2.9,-6.2,30.28,NW,325,8.0,10.0,65,0.00,,---,0.00,VWS V14.01,2013-02-19 17:36:00,
2013-02-19 11:41:00,3.0,-6.7,30.28,NNW,334,8.0,16.0,63,0.00,,---,0.00,VWS V14.01,2013-02-19 17:41:00,
2013-02-19 11:46:00,2.8,-6.9,30.28,NW,313,8.0,16.0,63,0.00,,---,0.00,VWS V14.01,2013-02-19 17:46:00,
2013-02-19 11:51:00,2.8,-6.9,30.28,NW,316,4.0,16.0,63,0.00,,---,0.00,VWS V14.01,2013-02-19 17:51:00,
2013-02-19 11:56:00,2.8,-6.9,30.28,NW,312,10.0,16.0,63,0.00,,---,0.00,VWS V14.01,2013-02-19 17:56:00,
2013-02-19 12:00:00,2.9,-6.8,30.28,NW,326,9.0,16.0,63,0.00,,---,0.00,VWS V14.01,2013-02-19 18:00:00,
2013-02-19 12:01:00,2.8,-6.9,30.28,NW,309,6.0,16.0,63,0.00,,---,0.00,VWS V14.01,2013-02-19 18:01:00,
2013-02-19 12:06:00,2.9,-6.8,30.28,NNW,327,8.0,13.0,63,0.00,,---,0.00,VWS V14.01,2013-02-19 18:06:00,
2013-02-19 12:11:00,3.2,-6.9,30.28,NW,326,10.0,14.0,62,0.00,,---,0.00,VWS V14.01,2013-02-19 18:11:00,
2013-02-19 12:16:00,3.0,-6.7,30.28,NW,309,6.0,15.0,63,0.00,,---,0.00,VWS V14.01,2013-02-19 18:16:00,
2013-02-19 12:21:00,3.1,-6.6,30.29,NW,318,6.0,15.0,63,0.00,,---,0.00,VWS V14.01,2013-02-19 18:21:00,
2013-02-19 12:26:00,3.3,-6.4,30.29,NW,321,4.0,15.0,63,0.00,,---,0.00,VWS V14.01,2013-02-19 18:26:00,
2013-02-19 12:30:00,3.3,-6.8,30.29,NNW,331,4.0,15.0,62,0.00,,---,0.00,VWS V14.01,2013-02-19 18:30:00,
2013-02-19 12:31:00,3.3,-6.8,30.29,NW,326,9.0,15.0,62,0.00,,---,0.00,VWS V14.01,2013-02-19 18:31:00,
2013-02-19 12:36:00,3.5,-6.6,30.29,NW,314,3.0,16.0,62,0.00,,---,0.00,VWS V14.01,2013-02-19 18:36:00,
2013-02-19 12:41:00,3.6,-7.2,30.29,NW,311,7.0,16.0,60,0.00,,---,0.00,VWS V14.01,2013-02-19 18:41:00,
2013-02-19 12:46:00,3.7,-6.7,30.29,NW,321,7.0,16.0,61,0.00,,---,0.00,VWS V14.01,2013-02-19 18:46:00,
2013-02-19 12:51:00,3.7,-6.7,30.29,NW,312,10.0,16.0,61,0.00,,---,0.00,VWS V14.01,2013-02-19 18:51:00,
2013-02-19 12:55:00,3.5,-7.3,30.29,NW,316,8.0,16.0,60,0.00,,---,0.00,VWS V14.01,2013-02-19 18:55:00,
2013-02-19 13:00:00,3.6,-6.8,30.30,NW,322,5.0,18.0,61,0.00,,---,0.00,VWS V14.01,2013-02-19 19:00:00,
2013-02-19 13:05:00,3.7,-7.1,30.30,NW,326,8.0,12.0,60,0.00,,---,0.00,VWS V14.01,2013-02-19 19:05:00,
2013-02-19 13:10:00,3.8,-6.6,30.30,NW,324,9.0,14.0,61,0.00,,---,0.00,VWS V14.01,2013-02-19 19:10:00,
2013-02-19 13:15:00,4.0,-6.8,30.30,NW,323,4.0,14.0,60,0.00,,---,0.00,VWS V14.01,2013-02-19 19:15:00,
2013-02-19 13:20:00,4.1,-6.3,30.30,NNW,333,5.0,14.0,61,0.00,,---,0.00,VWS V14.01,2013-02-19 19:20:00,
2013-02-19 13:25:00,4.3,-6.2,30.31,NW,315,6.0,14.0,61,0.00,,---,0.00,VWS V14.01,2013-02-19 19:25:00,
2013-02-19 13:30:00,4.2,-6.2,30.31,WNW,303,8.0,14.0,61,0.00,,---,0.00,VWS V14.01,2013-02-19 19:30:00,
2013-02-19 13:35:00,4.3,-6.5,30.31,NW,315,5.0,12.0,60,0.00,,---,0.00,VWS V14.01,2013-02-19 19:35:00,
2013-02-19 13:40:00,4.4,-6.8,30.31,NW,316,6.0,15.0,59,0.00,,---,0.00,VWS V14.01,2013-02-19 19:40:00,
2013-02-19 13:45:00,4.5,-6.7,30.31,NNW,333,3.0,15.0,59,0.00,,---,0.00,VWS V14.01,2013-02-19 19:45:00,
2013-02-19 13:50:00,4.7,-6.5,30.31,NNW,338,5.0,15.0,59,0.00,,---,0.00,VWS V14.01,2013-02-19 19:50:00,
2013-02-19 13:55:00,4.5,-7.0,30.32,NW,324,8.0,15.0,58,0.00,,---,0.00,VWS V14.01,2013-02-19 19:55:00,
2013-02-19 14:00:00,4.4,-6.8,30.32,NNW,329,4.0,15.0,59,0.00,,---,0.00,VWS V14.01,2013-02-19 20:00:00,
2013-02-19 14:05:00,4.4,-6.8,30.32,NW,323,4.0,12.0,59,0.00,,---,0.00,VWS V14.01,2013-02-19 20:05:00,
2013-02-19 14:10:00,4.5,-6.7,30.32,NW,326,10.0,12.0,59,0.00,,---,0.00,VWS V14.01,2013-02-19 20:10:00,
2013-02-19 14:15:00,4.5,-6.3,30.32,North,355,5.0,12.0,60,0.00,,---,0.00,VWS V14.01,2013-02-19 20:15:00,
2013-02-19 14:20:00,4.5,-6.3,30.32,NW,326,4.0,12.0,60,0.00,,---,0.00,VWS V14.01,2013-02-19 20:20:00,
2013-02-19 14:25:00,4.5,-6.3,30.33,NNE,20,4.0,12.0,60,0.00,,---,0.00,VWS V14.01,2013-02-19 20:25:00,
2013-02-19 14:30:00,4.6,-5.9,30.33,North,360,4.0,12.0,61,0.00,,---,0.00,VWS V14.01,2013-02-19 20:30:00,
2013-02-19 14:35:00,4.6,-5.9,30.33,NW,325,5.0,13.0,61,0.00,,---,0.00,VWS V14.01,2013-02-19 20:35:00,
2013-02-19 14:40:00,4.6,-5.9,30.33,NW,323,5.0,13.0,61,0.00,,---,0.00,VWS V14.01,2013-02-19 20:40:00,
2013-02-19 14:45:00,4.7,-5.8,30.33,NNW,339,4.0,16.0,61,0.00,,---,0.00,VWS V14.01,2013-02-19 20:45:00,
2013-02-19 14:50:00,4.7,-6.1,30.34,NE,45,6.0,16.0,60,0.00,,---,0.00,VWS V14.01,2013-02-19 20:50:00,
2013-02-19 14:55:00,4.9,-5.9,30.34,NW,325,4.0,16.0,60,0.00,,---,0.00,VWS V14.01,2013-02-19 20:55:00,
2013-02-19 15:00:00,5.2,-5.7,30.34,NNE,26,1.0,16.0,60,0.00,,---,0.00,VWS V14.01,2013-02-19 21:00:00,
2013-02-19 15:05:00,5.5,-5.0,30.35,NNW,331,2.0,6.0,61,0.00,,---,0.00,VWS V14.01,2013-02-19 21:05:00,
2013-02-19 15:10:00,5.8,-5.4,30.35,NW,308,3.0,11.0,59,0.00,,---,0.00,VWS V14.01,2013-02-19 21:10:00,
2013-02-19 15:15:00,6.0,-5.2,30.35,NW,309,5.0,12.0,59,0.00,,---,0.00,VWS V14.01,2013-02-19 21:15:00,
2013-02-19 15:20:00,6.0,-4.9,30.35,NNE,22,3.0,12.0,60,0.00,,---,0.00,VWS V14.01,2013-02-19 21:20:00,
2013-02-19 15:25:00,6.1,-5.1,30.35,NNE,13,0.0,12.0,59,0.00,,---,0.00,VWS V14.01,2013-02-19 21:25:00,
2013-02-19 15:30:00,6.1,-4.8,30.35,NW,321,8.0,15.0,60,0.00,,---,0.00,VWS V14.01,2013-02-19 21:30:00,
2013-02-19 15:35:00,6.0,-4.9,30.36,NNW,333,1.0,10.0,60,0.00,,---,0.00,VWS V14.01,2013-02-19 21:35:00,
2013-02-19 15:40:00,6.1,-4.8,30.36,NW,311,4.0,10.0,60,0.00,,---,0.00,VWS V14.01,2013-02-19 21:40:00,
2013-02-19 15:45:00,6.2,-4.7,30.36,NW,323,5.0,10.0,60,0.00,,---,0.00,VWS V14.01,2013-02-19 21:45:00,
2013-02-19 15:50:00,6.3,-4.6,30.36,North,5,1.0,10.0,60,0.00,,---,0.00,VWS V14.01,2013-02-19 21:50:00,
2013-02-19 15:55:00,6.5,-4.4,30.36,NW,322,1.0,11.0,60,0.00,,---,0.00,VWS V14.01,2013-02-19 21:55:00,
2013-02-19 16:00:00,6.7,-4.2,30.37,NW,317,5.0,13.0,60,0.00,,---,0.00,VWS V14.01,2013-02-19 22:00:00,
2013-02-19 16:05:00,6.8,-4.1,30.37,NW,318,2.0,12.0,60,0.00,,---,0.00,VWS V14.01,2013-02-19 22:05:00,
2013-02-19 16:10:00,6.8,-4.1,30.37,NW,326,2.0,12.0,60,0.00,,---,0.00,VWS V14.01,2013-02-19 22:10:00,
2013-02-19 16:15:00,7.1,-4.2,30.37,North,351,1.0,15.0,59,0.00,,---,0.00,VWS V14.01,2013-02-19 22:15:00,
2013-02-19 16:20:00,7.3,-4.0,30.37,NNW,327,5.0,15.0,59,0.00,,---,0.00,VWS V14.01,2013-02-19 22:20:00,
2013-02-19 16:25:00,7.3,-4.0,30.37,NNW,338,2.0,15.0,59,0.00,,---,0.00,VWS V14.01,2013-02-19 22:25:00,
2013-02-19 16:30:00,7.3,-4.0,30.38,North,10,0.0,15.0,59,0.00,,---,0.00,VWS V14.01,2013-02-19 22:30:00,
2013-02-19 16:35:00,7.3,-4.0,30.38,NNW,344,7.0,12.0,59,0.00,,---,0.00,VWS V14.01,2013-02-19 22:35:00,
2013-02-19 16:40:00,7.2,-3.8,30.38,NNW,329,11.0,12.0,60,0.00,,---,0.00,VWS V14.01,2013-02-19 22:40:00,
2013-02-19 16:45:00,7.1,-3.8,30.39,NW,324,4.0,13.0,60,0.00,,---,0.00,VWS V14.01,2013-02-19 22:45:00,
2013-02-19 16:50:00,7.0,-3.9,30.39,NW,306,8.0,13.0,60,0.00,,---,0.00,VWS V14.01,2013-02-19 22:50:00,
2013-02-19 16:55:00,6.9,-4.0,30.39,NNE,15,9.0,13.0,60,0.00,,---,0.00,VWS V14.01,2013-02-19 22:55:00,
2013-02-19 17:00:00,6.9,-4.0,30.39,NNW,330,3.0,13.0,60,0.00,,---,0.00,VWS V14.01,2013-02-19 23:00:00,
2013-02-19 17:05:00,7.0,-3.9,30.40,NNW,329,3.0,8.0,60,0.00,,---,0.00,VWS V14.01,2013-02-19 23:05:00,
2013-02-19 17:10:00,7.0,-3.9,30.40,NNW,335,6.0,8.0,60,0.00,,---,0.00,VWS V14.01,2013-02-19 23:10:00,
2013-02-19 17:15:00,6.9,-4.0,30.41,NNW,344,6.0,11.0,60,0.00,,---,0.00,VWS V14.01,2013-02-19 23:15:00,
2013-02-19 17:20:00,6.8,-3.8,30.41,NNW,330,6.0,13.0,61,0.00,,---,0.00,VWS V14.01,2013-02-19 23:20:00,
2013-02-19 17:25:00,6.7,-3.9,30.41,NW,322,1.0,13.0,61,0.00,,---,0.00,VWS V14.01,2013-02-19 23:25:00,
2013-02-19 17:30:00,6.6,-4.0,30.41,NNW,329,4.0,13.0,61,0.00,,---,0.00,VWS V14.01,2013-02-19 23:30:00,
2013-02-19 17:35:00,6.4,-4.2,30.41,NW,312,2.0,8.0,61,0.00,,---,0.00,VWS V14.01,2013-02-19 23:35:00,
2013-02-19 17:40:00,6.2,-4.0,30.42,NNW,327,6.0,8.0,62,0.00,,---,0.00,VWS V14.01,2013-02-19 23:40:00,
2013-02-19 17:45:00,5.8,-4.4,30.42,NW,319,4.0,12.0,62,0.00,,---,0.00,VWS V14.01,2013-02-19 23:45:00,
2013-02-19 17:50:00,5.5,-4.3,30.42,NW,319,4.0,12.0,63,0.00,,---,0.00,VWS V14.01,2013-02-19 23:50:00,
2013-02-19 17:55:00,5.3,-4.5,30.42,NNW,337,8.0,12.0,63,0.00,,---,0.00,VWS V14.01,2013-02-19 23:55:00,
2013-02-19 18:00:00,5.1,-4.7,30.43,NW,321,1.0,12.0,63,0.00,,---,0.00,VWS V14.01,2013-02-20 00:00:00,
2013-02-19 18:05:00,4.9,-4.6,30.43,NW,323,2.0,3.0,64,0.00,,---,0.00,VWS V14.01,2013-02-20 00:05:00,
2013-02-19 18:10:00,4.8,-4.7,30.43,NNW,344,2.0,8.0,64,0.00,,---,0.00,VWS V14.01,2013-02-20 00:10:00,
2013-02-19 18:15:00,4.7,-4.8,30.44,NNW,337,2.0,8.0,64,0.00,,---,0.00,VWS V14.01,2013-02-20 00:15:00,
2013-02-19 18:20:00,4.7,-4.8,30.44,NNE,33,3.0,8.0,64,0.00,,---,0.00,VWS V14.01,2013-02-20 00:20:00,
2013-02-19 18:25:00,4.6,-4.9,30.44,North,349,1.0,8.0,64,0.00,,---,0.00,VWS V14.01,2013-02-20 00:25:00,
2013-02-19 18:30:00,4.5,-4.7,30.44,NNW,331,2.0,8.0,65,0.00,,---,0.00,VWS V14.01,2013-02-20 00:30:00,
2013-02-19 18:35:00,4.5,-4.7,30.45,NW,325,1.0,8.0,65,0.00,,---,0.00,VWS V14.01,2013-02-20 00:35:00,
2013-02-19 18:40:00,4.4,-4.8,30.46,NNE,22,5.0,11.0,65,0.00,,---,0.00,VWS V14.01,2013-02-20 00:40:00,
2013-02-19 18:45:00,4.4,-4.8,30.46,NW,321,4.0,11.0,65,0.00,,---,0.00,VWS V14.01,2013-02-20 00:45:00,
2013-02-19 18:50:00,4.2,-4.9,30.46,NNW,340,6.0,11.0,65,0.00,,---,0.00,VWS V14.01,2013-02-20 00:50:00,
2013-02-19 18:55:00,4.1,-5.0,30.45,NNW,327,6.0,11.0,65,0.00,,---,0.00,VWS V14.01,2013-02-20 00:55:00,
2013-02-19 19:00:00,4.0,-5.1,30.45,NNW,335,2.0,11.0,65,0.00,,---,0.00,VWS V14.01,2013-02-20 01:00:00,
2013-02-19 19:05:00,3.9,-4.9,30.46,NNW,344,2.0,11.0,66,0.00,,---,0.00,VWS V14.01,2013-02-20 01:05:00,
2013-02-19 19:10:00,3.9,-4.9,30.46,NNW,334,0.0,11.0,66,0.00,,---,0.00,VWS V14.01,2013-02-20 01:10:00,
2013-02-19 19:15:00,3.8,-5.0,30.46,NNW,340,2.0,11.0,66,0.00,,---,0.00,VWS V14.01,2013-02-20 01:15:00,
2013-02-19 19:20:00,3.6,-5.2,30.47,NW,326,4.0,11.0,66,0.00,,---,0.00,VWS V14.01,2013-02-20 01:20:00,
2013-02-19 19:25:00,3.5,-5.3,30.47,North,355,2.0,11.0,66,0.00,,---,0.00,VWS V14.01,2013-02-20 01:25:00,
2013-02-19 19:30:00,3.4,-5.4,30.47,North,355,3.0,11.0,66,0.00,,---,0.00,VWS V14.01,2013-02-20 01:30:00,
2013-02-19 19:35:00,3.3,-5.2,30.47,NNW,337,2.0,7.0,67,0.00,,---,0.00,VWS V14.01,2013-02-20 01:35:00,
2013-02-19 19:40:00,3.2,-5.3,30.47,North,351,0.0,7.0,67,0.00,,---,0.00,VWS V14.01,2013-02-20 01:40:00,
2013-02-19 19:45:00,3.2,-5.3,30.47,North,11,0.0,11.0,67,0.00,,---,0.00,VWS V14.01,2013-02-20 01:45:00,
2013-02-19 19:50:00,3.1,-5.4,30.48,NNW,340,1.0,11.0,67,0.00,,---,0.00,VWS V14.01,2013-02-20 01:50:00,
2013-02-19 19:55:00,3.0,-5.5,30.48,NNE,13,2.0,11.0,67,0.00,,---,0.00,VWS V14.01,2013-02-20 01:55:00,
2013-02-19 20:00:00,2.9,-5.6,30.48,NNW,348,2.0,11.0,67,0.00,,---,0.00,VWS V14.01,2013-02-20 02:00:00,
2013-02-19 20:05:00,2.8,-5.7,30.48,North,5,5.0,8.0,67,0.00,,---,0.00,VWS V14.01,2013-02-20 02:05:00,
2013-02-19 20:10:00,2.8,-5.7,30.48,NW,314,2.0,10.0,67,0.00,,---,0.00,VWS V14.01,2013-02-20 02:10:00,
2013-02-19 20:15:00,2.8,-5.7,30.48,North,360,1.0,10.0,67,0.00,,---,0.00,VWS V14.01,2013-02-20 02:15:00,
2013-02-19 20:20:00,2.7,-5.8,30.48,North,5,1.0,10.0,67,0.00,,---,0.00,VWS V14.01,2013-02-20 02:20:00,
2013-02-19 20:25:00,2.6,-5.5,30.48,NNE,19,3.0,12.0,68,0.00,,---,0.00,VWS V14.01,2013-02-20 02:25:00,
2013-02-19 20:30:00,2.6,-5.5,30.49,NNW,331,2.0,12.0,68,0.00,,---,0.00,VWS V14.01,2013-02-20 02:30:00,
2013-02-19 20:35:00,2.4,-5.7,30.49,NNW,341,0.0,5.0,68,0.00,,---,0.00,VWS V14.01,2013-02-20 02:35:00,
2013-02-19 20:40:00,2.3,-5.8,30.50,NNE,28,0.0,7.0,68,0.00,,---,0.00,VWS V14.01,2013-02-20 02:40:00,
2013-02-19 20:45:00,2.2,-5.6,30.50,North,360,0.0,8.0,69,0.00,,---,0.00,VWS V14.01,2013-02-20 02:45:00,
2013-02-19 20:50:00,2.1,-5.7,30.50,NW,324,0.0,8.0,69,0.00,,---,0.00,VWS V14.01,2013-02-20 02:50:00,
2013-02-19 20:55:00,2.0,-5.8,30.50,NNW,327,0.0,8.0,69,0.00,,---,0.00,VWS V14.01,2013-02-20 02:55:00,
2013-02-19 21:00:00,2.0,-5.8,30.50,NNW,346,3.0,9.0,69,0.00,,---,0.00,VWS V14.01,2013-02-20 03:00:00,
2013-02-19 21:05:00,1.9,-5.9,30.51,North,5,0.0,3.0,69,0.00,,---,0.00,VWS V14.01,2013-02-20 03:05:00,
2013-02-19 21:10:00,1.8,-5.7,30.51,NNW,348,0.0,5.0,70,0.00,,---,0.00,VWS V14.01,2013-02-20 03:10:00,
2013-02-19 21:15:00,1.8,-5.7,30.51,NNW,345,0.0,6.0,70,0.00,,---,0.00,VWS V14.01,2013-02-20 03:15:00,
2013-02-19 21:20:00,1.7,-5.8,30.51,North,355,9.0,9.0,70,0.00,,---,0.00,VWS V14.01,2013-02-20 03:20:00,
2013-02-19 21:25:00,1.6,-5.9,30.51,NNW,342,0.0,9.0,70,0.00,,---,0.00,VWS V14.01,2013-02-20 03:25:00,
2013-02-19 21:30:00,1.4,-6.1,30.51,North,355,0.0,9.0,70,0.00,,---,0.00,VWS V14.01,2013-02-20 03:30:00,
2013-02-19 21:35:00,1.3,-6.2,30.51,North,355,0.0,7.0,70,0.00,,---,0.00,VWS V14.01,2013-02-20 03:35:00,
2013-02-19 21:40:00,1.3,-5.9,30.51,NW,322,0.0,7.0,71,0.00,,---,0.00,VWS V14.01,2013-02-20 03:40:00,
2013-02-19 21:45:00,1.3,-5.9,30.51,North,360,3.0,7.0,71,0.00,,---,0.00,VWS V14.01,2013-02-20 03:45:00,
2013-02-19 21:50:00,1.2,-6.0,30.51,North,355,1.0,7.0,71,0.00,,---,0.00,VWS V14.01,2013-02-20 03:50:00,
2013-02-19 21:55:00,1.2,-6.0,30.51,NNW,348,0.0,9.0,71,0.00,,---,0.00,VWS V14.01,2013-02-20 03:55:00,
2013-02-19 22:00:00,1.2,-6.0,30.51,North,11,0.0,9.0,71,0.00,,---,0.00,VWS V14.01,2013-02-20 04:00:00,
2013-02-19 22:05:00,1.1,-6.1,30.51,North,360,0.0,4.0,71,0.00,,---,0.00,VWS V14.01,2013-02-20 04:05:00,
2013-02-19 22:10:00,1.0,-5.9,30.51,North,350,1.0,4.0,72,0.00,,---,0.00,VWS V14.01,2013-02-20 04:10:00,
2013-02-19 22:15:00,0.9,-6.0,30.51,NNW,334,0.0,5.0,72,0.00,,---,0.00,VWS V14.01,2013-02-20 04:15:00,
2013-02-19 22:20:00,0.9,-6.0,30.51,NNW,341,0.0,5.0,72,0.00,,---,0.00,VWS V14.01,2013-02-20 04:20:00,
2013-02-19 22:25:00,0.8,-6.1,30.51,NNW,343,2.0,5.0,72,0.00,,---,0.00,VWS V14.01,2013-02-20 04:25:00,
2013-02-19 22:30:00,0.7,-5.9,30.51,NNW,337,1.0,5.0,73,0.00,,---,0.00,VWS V14.01,2013-02-20 04:30:00,
2013-02-19 22:35:00,0.7,-5.9,30.51,North,355,0.0,2.0,73,0.00,,---,0.00,VWS V14.01,2013-02-20 04:35:00,
2013-02-19 22:40:00,0.6,-6.0,30.51,NW,314,1.0,5.0,73,0.00,,---,0.00,VWS V14.01,2013-02-20 04:40:00,
2013-02-19 22:45:00,0.5,-6.1,30.51,NW,314,0.0,6.0,73,0.00,,---,0.00,VWS V14.01,2013-02-20 04:45:00,
2013-02-19 22:50:00,0.5,-6.1,30.51,NNW,343,2.0,6.0,73,0.00,,---,0.00,VWS V14.01,2013-02-20 04:50:00,
2013-02-19 22:55:00,0.5,-6.1,30.51,North,349,0.0,6.0,73,0.00,,---,0.00,VWS V14.01,2013-02-20 04:55:00,
2013-02-19 23:00:00,0.4,-6.2,30.52,NNW,346,0.0,6.0,73,0.00,,---,0.00,VWS V14.01,2013-02-20 05:00:00,
2013-02-19 23:05:00,0.2,-6.4,30.52,NNW,327,1.0,4.0,73,0.00,,---,0.00,VWS V14.01,2013-02-20 05:05:00,
2013-02-19 23:10:00,0.2,-6.1,30.52,NNW,338,0.0,4.0,74,0.00,,---,0.00,VWS V14.01,2013-02-20 05:10:00,
2013-02-19 23:15:00,0.1,-6.3,30.52,NNW,337,0.0,4.0,74,0.00,,---,0.00,VWS V14.01,2013-02-20 05:15:00,
2013-02-19 23:20:00,-0.1,-6.4,30.52,NNW,338,0.0,4.0,74,0.00,,---,0.00,VWS V14.01,2013-02-20 05:20:00,
2013-02-19 23:25:00,-0.1,-6.4,30.52,North,360,0.0,4.0,74,0.00,,---,0.00,VWS V14.01,2013-02-20 05:25:00,
2013-02-19 23:30:00,-0.3,-6.6,30.52,North,360,0.0,4.0,74,0.00,,---,0.00,VWS V14.01,2013-02-20 05:30:00,
2013-02-19 23:35:00,-0.5,-6.8,30.52,North,360,0.0,0.0,74,0.00,,---,0.00,VWS V14.01,2013-02-20 05:35:00,
2013-02-19 23:40:00,-0.7,-6.7,30.52,North,360,0.0,1.0,75,0.00,,---,0.00,VWS V14.01,2013-02-20 05:40:00,
2013-02-19 23:45:00,-0.8,-6.8,30.52,North,5,1.0,1.0,75,0.00,,---,0.00,VWS V14.01,2013-02-20 05:45:00,
2013-02-19 23:50:00,-0.9,-6.9,30.53,North,5,1.0,2.0,75,0.00,,---,0.00,VWS V14.01,2013-02-20 05:50:00,
2013-02-19 23:55:00,-0.9,-6.9,30.53,North,5,1.0,2.0,75,0.00,,---,0.00,VWS V14.01,2013-02-20 05:55:00,